This demonstration page uses our WeatherBlox Daily Observations layout. Learn more.

Left ArrowRight Arrow

39.92423, -83.80882

Hourly Observations for August 20, 2022

Temp ( °F °C ) Dew Point ( °F °C ) Humidity (%) Winds ( mph kmh ) Pressure ( in mb ) Visibility ( mi km ) Precip ( " mm )
12:56 am 00:56 Clear 63 17.2 N/A N/A SE 3 6 30.05 1018 10 16 0.00 0.00
1:56 am 01:56 Clear 62 16.7 N/A N/A SE 5 7 30.06 1018 10 16 0.00 0.00
2:56 am 02:56 Clear 61 16.1 N/A N/A ESE 3 6 30.05 1018 10 16 0.00 0.00
3:56 am 03:56 Clear 61 16.1 N/A N/A ESE 5 7 30.05 1018 10 16 0.00 0.00
4:56 am 04:56 Mostly Clear 61 16.1 N/A N/A SE 5 7 30.05 1018 10 16 0.00 0.00
5:56 am 05:56 Partly Cloudy 60 15.6 N/A N/A SE 3 6 30.06 1018 10 16 0.00 0.00
6:56 am 06:56 Mostly Sunny 62 16.7 N/A N/A SE 3 6 30.06 1018 10 16 0.00 0.00
7:56 am 07:56 Sunny 66 18.9 N/A N/A SE 7 11 30.07 1018 10 16 0.00 0.00
8:56 am 08:56 Mostly Cloudy 69 20.6 69 20.6 100 100 SE 3 6 30.08 1019 10 16 0.00 0.00
9:56 am 09:56 Mostly Sunny 74 23.3 72 22.2 94 94 SE 3 6 30.09 1019 10 16 0.00 0.00
10:56 am 10:56 Mostly Cloudy 78 25.6 70 21.1 76 76 S 6 9 30.09 1019 10 16 0.00 0.00
11:56 am 11:56 Mostly Sunny 80 26.7 70 21.1 71 71 S 6 9 30.09 1019 10 16 0.00 0.00
12:56 pm 12:56 Mostly Cloudy 81 27.2 72 22.2 74 74 VRB 5 7 30.08 1019 10 16 0.00 0.00
1:34 pm 13:34 Partly Cloudy with Thunderstorms 81 27 73 23 79 79 VRB 7 11 30.02 1016 10 16 0.00 0.00
1:56 pm 13:56 Mostly Cloudy with Thunderstorms 79 26.1 72 22.2 79 79 ESE 12 19 30.05 1018 10 16 0.00 0.00
2:18 pm 14:18 Cloudy with Nearby Thunderstorms 77 25 73 23 89 89 SE 10 17 30.01 1016 10 16 0.00 0.00
2:30 pm 14:30 Cloudy with Nearby Thunderstorms 79 26 73 23 84 84 S 7 11 30.00 1016 10 16 0.00 0.00
2:37 pm 14:37 Mostly Cloudy with Nearby Thunderstorms 81 27 75 24 84 84 S 6 9 29.99 1015 10 16 0.00 0.00
2:43 pm 14:43 Mostly Cloudy 82 28 72 22 70 70 S 9 15 29.97 1015 10 16 0.00 0.00
2:56 pm 14:56 Mostly Cloudy 82 27.8 70 21.1 67 67 SSW 7 11 30.02 1017 10 16 0.00 0.00
3:56 pm 15:56 Cloudy with Nearby Thunderstorms 79 26.1 71 21.7 77 77 VRB 3 6 30.02 1017 10 16 0.00 0.00
4:22 pm 16:22 Mostly Cloudy with Thunderstorms 72 22 70 21 94 94 W 10 17 30.01 1016 3 4 0.00 0.00
4:31 pm 16:31 Cloudy with Thunderstorms 72 22 68 20 88 88 WSW 7 11 30.01 1016 4 6 0.01 0.13
4:56 pm 16:56 Mostly Cloudy with Thunderstorms 72 22.2 N/A N/A Calm 30.04 1017 10 16 0.01 0.13
5:26 pm 17:26 Cloudy with Rain 72 22 72 22 100 100 S 3 6 29.99 1016 10 16 0.01 0.25
5:56 pm 17:56 Mostly Cloudy 75 23.9 66 18.9 74 74 WSW 3 6 30.02 1017 10 16 0.01 0.25
6:56 pm 18:56 Sunny 73 22.8 71 21.7 94 94 NE 7 11 30.02 1017 10 16 0.00 0.00
7:56 pm 19:56 Sunny 70 21.1 N/A N/A E 9 15 30.02 1017 10 16 0.00 0.00
8:56 pm 20:56 Mostly Clear 67 19.4 N/A N/A ESE 7 11 30.04 1017 10 16 0.00 0.00
9:56 pm 21:56 Clear 68 20 N/A N/A ESE 8 13 30.02 1017 10 16 0.00 0.00
10:56 pm 22:56 Clear N/A N/A N/A SSE 8 13 30.10 1019 10 16 0.00 0.00
11:56 pm 23:56 Mostly Clear N/A N/A N/A SSE 3 6 30.10 1019 10 16 0.00 0.00

Powered by AerisWeather